Pinedale, WY

12:42 AM MDT on May 24, 2017 (GMT -0600)
Wenz

Weather History for KPNA - December, 2012

Change the Weather History Date:

Thursday, December 20, 2012

  Actual Average (KBPI) Record (KBPI)
Temperature  
Mean Temperature 3 °F -  
Max Temperature 19 °F 22 °F 45 °F (1980)
Min Temperature -13 °F 0 °F -28 °F (1998)
Degree Days  
Heating Degree Days 62    
Moisture  
Dew Point -9 °F    
Average Humidity 72    
Maximum Humidity 92    
Minimum Humidity 49    
Precipitation  
Precipitation 0.00 in - - ()
Sea Level Pressure  
Sea Level Pressure 30.26 in    
Wind  
Wind Speed 5 mph (WNW)    
Max Wind Speed 14 mph    
Max Gust Speed -    
Visibility 10 miles    
Events      
Averages and records for this station are not official NWS values.
T = Trace of Precipitation, MM = Missing Value Source: NWS Daily Summary

Daily Weather History Graph

Daily Weather History Graph

Search for Another Location

Airport or City:

Trip Planner

Search our weather history database for the weather conditions in past years. The results will help you decide how hot, cold, wet, or windy it might be!

Date:

Astronomy

Dec. 20, 2012 Rise Set
Actual Time 7:46 AM MST 4:48 PM MST
Civil Twilight 7:14 AM MST 5:20 PM MST
Nautical Twilight 6:38 AM MST 5:56 PM MST
Astronomical Twilight 6:03 AM MST 6:30 PM MST
Moon 12:14 PM MST (12/20) 12:29 AM MST (12/20)
Length of Visible Light 10h 06m
Length of Day
9h 01m
First Quarter, 56% of the Moon is Illuminated
Dec 20
First Quarter
Dec 28
Full
Jan 4
Last Quarter
Jan 11
New
Jan 18
First Quarter

Hourly Weather History & Observations

Time (MST) Temp. Windchill Dew Point Humidity Pressure Visibility Wind Dir Wind Speed Gust Speed Precip Events Conditions
12:15 AM -4.0 °F -17.8 °F -9.4 °F 78% 30.22 in 10.0 mi NW 6.9 mph - N/A   Clear
12:35 AM -4.0 °F -17.8 °F -11.2 °F 71% 30.22 in 10.0 mi NW 6.9 mph - N/A   Clear
12:55 AM -5.8 °F -18.4 °F -13.0 °F 71% 30.22 in 10.0 mi NW 5.8 mph - N/A   Clear
1:15 AM -5.8 °F -14.5 °F -13.0 °F 71% 30.23 in 10.0 mi WNW 3.5 mph - N/A   Clear
1:35 AM -5.8 °F -16.7 °F -13.0 °F 71% 30.22 in 10.0 mi NW 4.6 mph - N/A   Clear
1:55 AM -5.8 °F - -13.0 °F 71% 30.23 in 10.0 mi Calm Calm - N/A   Clear
2:15 AM -5.8 °F - -13.0 °F 71% 30.24 in 10.0 mi Calm Calm - N/A   Clear
2:35 AM -7.6 °F -18.8 °F -14.8 °F 71% 30.24 in 7.0 mi NW 4.6 mph - N/A   Clear
2:55 AM -9.4 °F -22.7 °F -14.8 °F 77% 30.25 in 10.0 mi WNW 5.8 mph - N/A   Clear
3:15 AM -9.4 °F -22.7 °F -14.8 °F 77% 30.24 in 10.0 mi West 5.8 mph - N/A   Clear
3:35 AM -11.2 °F -26.4 °F -14.8 °F 84% 30.24 in 10.0 mi WNW 6.9 mph - N/A   Clear
3:55 AM -7.6 °F -28.3 °F -13.0 °F 77% 30.24 in 10.0 mi NW 13.8 mph - N/A   Clear
4:15 AM -7.6 °F -24.6 °F -13.0 °F 77% 30.24 in 10.0 mi NW 9.2 mph - N/A   Clear
4:35 AM -9.4 °F -28.9 °F -14.8 °F 77% 30.24 in 10.0 mi NNW 11.5 mph - N/A   Clear
4:55 AM -9.4 °F -26.8 °F -14.8 °F 77% 30.24 in 10.0 mi WNW 9.2 mph - N/A   Clear
5:15 AM -9.4 °F -20.9 °F -14.8 °F 77% 30.24 in 10.0 mi West 4.6 mph - N/A   Clear
5:35 AM -11.2 °F -24.8 °F -16.6 °F 77% 30.25 in 10.0 mi West 5.8 mph - N/A   Clear
5:55 AM -9.4 °F - -14.8 °F 77% 30.25 in 10.0 mi Calm Calm - N/A   Clear
6:15 AM -11.2 °F -23.0 °F -16.6 °F 77% 30.26 in 10.0 mi West 4.6 mph - N/A   Clear
6:35 AM -11.2 °F -26.4 °F -16.6 °F 77% 30.27 in 10.0 mi WNW 6.9 mph - N/A   Clear
6:55 AM -13.0 °F -25.1 °F -16.6 °F 84% 30.27 in 10.0 mi WNW 4.6 mph - N/A   Clear
7:15 AM -11.2 °F -20.6 °F -16.6 °F 77% 30.28 in 10.0 mi NW 3.5 mph - N/A   Clear
7:35 AM -11.2 °F - -16.6 °F 77% 30.27 in 10.0 mi Calm Calm - N/A   Clear
7:55 AM -9.4 °F - -14.8 °F 77% 30.27 in 10.0 mi Calm Calm - N/A   Clear
8:15 AM -11.2 °F -20.6 °F -16.6 °F 77% 30.28 in 10.0 mi West 3.5 mph - N/A   Clear
8:35 AM -9.4 °F - -14.8 °F 77% 30.29 in 10.0 mi Calm Calm - N/A   Clear
8:55 AM -7.6 °F -20.6 °F -14.8 °F 71% 30.30 in 10.0 mi WNW 5.8 mph - N/A   Clear
9:15 AM -5.8 °F -16.7 °F -13.0 °F 71% 30.31 in 10.0 mi WNW 4.6 mph - N/A   Clear
9:35 AM -4.0 °F -17.8 °F -9.4 °F 78% 30.31 in 10.0 mi WNW 6.9 mph - N/A   Clear
9:55 AM -2.2 °F -12.5 °F -9.4 °F 71% 30.32 in 10.0 mi WNW 4.6 mph - N/A   Clear
10:15 AM 1.4 °F -8.3 °F -5.8 °F 72% 30.32 in 10.0 mi WNW 4.6 mph - N/A   Clear
10:35 AM 3.2 °F -4.2 °F -5.8 °F 66% 30.31 in 10.0 mi WNW 3.5 mph - N/A   Clear
10:55 AM 5.0 °F - -4.0 °F 66% 30.31 in 10.0 mi Calm Calm - N/A   Clear
11:15 AM 6.8 °F - -4.0 °F 61% 30.29 in 10.0 mi Calm Calm - N/A   Clear
11:35 AM 8.6 °F - -2.2 °F 62% 30.29 in 10.0 mi Calm Calm - N/A   Clear
11:55 AM 10.4 °F - -0.4 °F 62% 30.28 in 10.0 mi Calm Calm - N/A   Clear
12:15 PM 10.4 °F 4.0 °F -0.4 °F 62% 30.27 in 10.0 mi North 3.5 mph - N/A   Clear
12:35 PM 14.0 °F - 1.4 °F 57% 30.27 in 10.0 mi Calm Calm - N/A   Clear
12:55 PM 14.0 °F - 1.4 °F 57% 30.26 in 10.0 mi Calm Calm - N/A   Clear
1:15 PM 15.8 °F - 1.4 °F 53% 30.26 in 10.0 mi Calm Calm - N/A   Clear
1:35 PM 17.6 °F - 1.4 °F 49% 30.26 in 10.0 mi Calm Calm - N/A   Clear
2:15 PM 19.4 °F - 3.2 °F 49% 30.25 in 10.0 mi Calm Calm - N/A   Clear
2:35 PM 19.4 °F - 3.2 °F 49% 30.24 in 10.0 mi Calm Calm - N/A   Clear
2:55 PM 17.6 °F - 3.2 °F 53% 30.24 in 10.0 mi Calm Calm - N/A   Clear
3:15 PM 17.6 °F - 3.2 °F 53% 30.24 in 10.0 mi Calm Calm - N/A   Clear
3:35 PM 17.6 °F - 3.2 °F 53% 30.23 in 10.0 mi Calm Calm - N/A   Clear
3:55 PM 17.6 °F 12.3 °F 3.2 °F 53% 30.24 in 10.0 mi NE 3.5 mph - N/A   Clear
4:15 PM 17.6 °F - 3.2 °F 53% 30.24 in 10.0 mi Calm Calm - N/A   Clear
4:35 PM 15.8 °F - 1.4 °F 53% 30.25 in 10.0 mi Calm Calm - N/A   Clear
4:55 PM 12.2 °F - 3.2 °F 67% 30.25 in 10.0 mi Calm Calm - N/A   Clear
5:15 PM 8.6 °F - -0.4 °F 67% 30.24 in 10.0 mi Calm Calm - N/A   Clear
5:35 PM 3.2 °F -6.2 °F -2.2 °F 78% 30.25 in 10.0 mi NW 4.6 mph - N/A   Clear
5:55 PM -0.4 °F -12.0 °F -5.8 °F 78% 30.25 in 10.0 mi NW 5.8 mph - N/A   Clear
6:15 PM -2.2 °F -14.2 °F -5.8 °F 85% 30.25 in 10.0 mi West 5.8 mph - N/A   Clear
6:35 PM -0.4 °F -12.0 °F -5.8 °F 78% 30.25 in 10.0 mi WNW 5.8 mph - N/A   Clear
6:55 PM -4.0 °F -17.8 °F -5.8 °F 92% 30.25 in 10.0 mi West 6.9 mph - N/A   Clear
7:15 PM -4.0 °F -16.3 °F -7.6 °F 85% 30.25 in 10.0 mi WNW 5.8 mph - N/A   Clear
7:35 PM -5.8 °F -21.2 °F -9.4 °F 84% 30.25 in 10.0 mi NNW 8.1 mph - N/A   Clear
7:55 PM -5.8 °F -18.4 °F -9.4 °F 84% 30.26 in 10.0 mi WNW 5.8 mph - N/A   Clear
8:15 PM -7.6 °F -20.6 °F -11.2 °F 84% 30.26 in 10.0 mi WNW 5.8 mph - N/A   Clear
8:35 PM -7.6 °F -20.6 °F -11.2 °F 84% 30.26 in 10.0 mi WNW 5.8 mph - N/A   Clear
8:55 PM -9.4 °F -24.3 °F -13.0 °F 84% 30.25 in 10.0 mi West 6.9 mph - N/A   Clear
9:15 PM -7.6 °F -23.4 °F -11.2 °F 84% 30.25 in 10.0 mi WNW 8.1 mph - N/A   Clear
9:35 PM -7.6 °F -20.6 °F -13.0 °F 77% 30.25 in 10.0 mi WNW 5.8 mph - N/A   Clear
9:55 PM -9.4 °F -24.3 °F -13.0 °F 84% 30.26 in 10.0 mi WNW 6.9 mph - N/A   Clear
10:15 PM -7.6 °F -18.8 °F -13.0 °F 77% 30.25 in 10.0 mi West 4.6 mph - N/A   Clear
10:35 PM -7.6 °F -23.4 °F -13.0 °F 77% 30.25 in 10.0 mi NW 8.1 mph - N/A   Clear
10:55 PM -7.6 °F -23.4 °F -13.0 °F 77% 30.25 in 10.0 mi NW 8.1 mph - N/A   Clear
11:15 PM -7.6 °F -22.1 °F -13.0 °F 77% 30.25 in 10.0 mi NW 6.9 mph - N/A   Clear
11:35 PM -9.4 °F -24.3 °F -14.8 °F 77% 30.24 in 10.0 mi WNW 6.9 mph - N/A   Clear
11:55 PM -7.6 °F -18.8 °F -13.0 °F 77% 30.25 in 10.0 mi WNW 4.6 mph - N/A   Clear